Wind_Speed
19 19 19 19 18 18 17 17 17 17 18 18 18 19 19 20 20 20 21 21 21 22 22 22 22 22 23 23 24 25 25 26 26 26 26 26 27 28 28 29 30 31 32 32 32 31 31 30 30 30 31 31
19 19 19 19 18 18 17 17 17 17 17 18 18 19 19 20 21 21 22 22 23 23 23 24 24 24 24 24 25 25 26 26 27 27 27 27 28 28 29 29 30 31 32 32 33 33 33 33 32 31 31 32
19 19 19 18 18 18 18 17 17 17 17 18 18 19 20 21 21 22 23 23 24 24 25 25 25 25 26 26 26 26 26 26 27 27 28 28 28 29 29 30 30 31 31 32 33 34 34 35 34 34 33 32
19 18 18 18 18 18 18 18 18 18 18 18 19 20 21 21 22 23 23 23 24 24 25 25 25 25 26 26 26 27 27 27 28 28 28 29 29 30 30 30 31 31 32 32 32 33 34 35 35 35 35 34
18 18 18 18 18 17 17 17 17 18 18 19 20 21 21 22 22 22 22 22 23 23 23 24 24 24 25 25 26 26 27 27 28 28 28 29 29 30 30 31 31 32 32 33 33 33 33 34 35 35 36 36
18 18 17 17 17 16 16 17 17 18 19 20 20 21 21 21 21 21 22 22 22 22 22 23 23 24 24 24 25 26 26 26 27 27 27 27 28 28 29 29 30 31 32 33 34 34 34 34 35 35 35 36
18 18 17 16 16 16 16 17 18 19 20 20 21 21 22 22 21 21 22 22 22 22 22 23 23 23 24 24 24 25 25 26 26 26 26 25 26 26 26 26 27 28 29 31 33 34 35 36 36 36 35 35
17 17 16 16 16 16 17 17 18 20 20 21 22 22 22 22 22 22 22 22 22 22 23 23 24 24 24 24 24 24 24 24 24 24 25 25 25 25 25 25 25 26 26 27 29 31 33 34 36 36 37 37
16 16 16 16 16 17 18 19 20 21 22 22 23 23 22 22 22 22 22 22 23 23 24 24 24 24 24 24 24 23 23 23 23 23 23 24 24 25 25 26 26 26 26 27 27 28 29 31 33 34 36 37
16 16 17 17 18 18 19 20 21 22 22 23 23 23 23 23 23 23 23 23 24 24 25 25 25 25 25 25 24 24 24 23 23 23 24 24 25 25 26 27 28 28 28 28 28 28 29 29 30 31 33 35
17 17 18 18 19 19 20 21 22 22 23 23 23 23 23 24 24 24 25 25 25 26 26 26 26 26 26 26 26 25 25 25 25 25 25 25 26 26 27 28 28 29 29 29 30 30 30 30 31 31 31 32
17 17 18 19 19 20 21 22 22 22 22 23 23 23 24 24 25 25 26 26 27 27 28 28 28 28 28 28 28 27 27 27 27 27 27 27 27 27 28 28 29 30 30 31 31 31 31 31 32 32 32 32
17 18 18 19 20 21 22 22 22 22 23 23 23 24 24 25 26 27 27 28 28 29 29 29 30 30 29 29 29 29 29 29 28 28 28 28 28 28 29 29 29 30 30 31 32 32 32 32 33 33 33 33
18 18 19 20 21 21 22 22 22 23 23 24 24 25 25 26 27 28 29 30 30 30 31 31 31 31 31 31 31 31 31 30 30 30 30 30 30 30 30 30 30 30 31 32 32 33 34 34 34 34 34 35
18 19 20 20 21 21 22 22 23 23 24 25 25 26 27 28 29 30 31 31 32 32 33 33 33 33 33 33 33 32 32 32 32 31 31 31 31 31 31 32 32 32 33 33 33 34 35 35 36 36 36 36
19 20 21 21 21 21 22 23 23 24 25 26 27 28 28 29 30 31 32 33 33 34 34 35 35 35 35 35 34 34 33 33 33 33 33 33 33 33 33 34 34 34 34 35 35 35 35 36 37 37 37 37
20 21 21 21 22 22 23 24 24 25 26 27 28 29 29 30 31 32 33 34 34 35 36 36 36 36 36 36 36 35 35 35 35 34 34 34 34 34 34 34 34 34 35 35 35 36 36 37 38 38 38 38
21 21 21 22 22 23 24 25 26 27 28 28 29 30 30 31 31 32 33 34 35 35 36 37 37 37 37 37 36 36 36 36 36 36 36 35 35 35 35 35 35 35 35 35 36 36 37 38 38 39 39 39
21 21 22 23 24 24 25 26 27 28 29 29 30 30 31 32 32 33 33 34 35 35 36 37 37 37 37 37 37 37 37 37 36 36 37 37 36 36 36 36 36 36 36 36 37 37 38 38 39 39 39 39
21 22 23 24 25 26 27 27 28 29 30 30 31 31 31 32 33 33 34 34 35 35 36 37 37 37 37 37 37 37 37 37 37 37 37 37 38 37 37 37 37 37 37 38 38 38 38 39 39 39 40 40
22 23 24 25 26 27 28 28 29 30 31 31 31 31 31 32 33 34 34 35 35 36 36 37 37 38 38 38 38 38 38 38 38 38 38 38 38 39 39 39 39 39 39 39 39 39 39 39 40 40 40 40
23 24 25 26 27 28 28 29 30 30 31 31 31 31 32 32 33 34 34 35 35 36 36 37 37 38 38 39 39 39 39 39 39 39 39 39 40 40 40 41 41 41 41 41 41 41 40 41 41 41 41 41
24 25 26 27 28 28 29 29 30 30 31 31 32 31 32 33 33 34 34 34 35 35 36 36 37 38 38 39 39 39 39 40 40 40 40 40 41 41 41 42 42 42 43 43 43 43 42 42 42 42 43 43
25 26 27 28 28 28 29 29 29 30 31 31 32 32 32 32 33 33 34 34 35 35 36 36 37 38 38 39 39 40 40 41 41 41 42 42 42 42 42 42 42 42 43 43 43 43 43 43 43 43 43 43
26 27 27 29 29 28 29 29 29 29 30 31 31 32 32 32 33 33 34 35 35 36 36 37 38 38 39 40 40 41 41 42 43 43 43 44 44 44 44 44 43 43 43 44 44 44 44 44 44 44 44 44
27 27 28 30 29 29 29 29 29 29 30 31 31 32 33 33 33 34 34 35 36 36 37 37 38 38 39 39 40 41 42 43 43 44 44 45 45 45 45 45 45 45 45 45 46 47 47 47 47 46 45 45
28 28 30 31 30 30 30 29 29 30 30 31 33 33 34 34 34 35 36 36 36 37 37 38 38 39 39 39 40 41 42 43 44 45 45 46 46 46 46 46 47 47 47 47 47 48 49 50 50 50 49 48
29 30 31 32 31 31 31 30 30 30 31 32 34 35 35 35 36 37 37 38 38 38 39 39 39 39 39 40 41 41 43 44 44 45 46 47 47 47 48 48 48 47 47 48 48 49 50 51 52 52 53 53
30 32 32 32 32 32 32 31 31 31 31 32 35 36 36 37 38 38 39 40 40 41 40 40 40 40 40 41 42 42 43 44 46 47 48 48 49 49 49 49 49 49 48 49 49 49 50 51 52 53 55 56
33 34 33 33 34 34 33 33 32 32 31 33 36 37 37 38 39 40 41 41 42 42 42 42 41 41 42 42 43 43 44 45 46 47 48 49 50 50 50 50 50 50 50 50 49 49 49 50 51 53 55 57
34 35 34 35 35 35 35 35 34 32 32 34 37 38 39 39 40 41 42 43 43 44 44 44 44 44 44 45 45 46 46 47 48 49 49 50 50 51 51 51 51 51 51 51 51 50 50 50 51 52 53 55
Wind_Direction
288 291 294 296 296 297 299 301 303 305 307 309 310 311 312 313 314 314 314 313 313 312 311 311 310 309 308 307 307 306 306 305 304 303 302 300 298 296 294 293 291 289 288 286 284 281 279 278 278 279 280 279
289 292 293 294 295 297 299 302 305 308 309 311 312 314 315 315 316 316 317 317 316 315 315 314 314 313 312 311 310 309 307 306 305 304 303 302 300 299 297 296 294 292 290 289 287 285 283 280 278 277 277 278
288 290 292 294 297 300 303 306 309 311 312 314 315 316 317 318 318 318 318 318 317 317 317 317 316 316 315 313 312 310 309 307 306 304 303 302 301 300 298 297 296 294 293 291 289 288 286 284 281 279 277 277
287 290 293 297 301 304 307 309 311 312 314 315 316 317 317 318 317 317 317 316 316 316 316 315 315 315 315 314 313 311 310 308 307 305 304 302 302 300 299 298 296 295 294 292 291 290 288 287 285 282 280 278
289 291 294 298 301 303 306 307 309 311 312 313 315 315 316 316 315 314 314 313 313 313 313 312 313 313 312 312 312 311 311 310 309 307 306 304 303 302 300 300 298 297 296 294 293 291 290 289 287 285 283 280
286 288 292 295 298 301 303 305 307 309 310 311 312 313 313 312 311 310 309 309 308 308 309 309 310 310 311 312 312 312 312 311 311 310 309 307 306 304 302 301 300 299 298 297 296 294 292 291 289 288 285 283
283 287 292 295 297 299 301 303 305 307 307 309 310 310 309 308 307 305 304 304 304 304 305 306 307 309 310 311 312 312 312 312 312 312 311 311 310 309 307 305 303 301 299 298 297 296 295 293 292 290 288 286
286 290 293 294 295 296 298 301 302 303 305 306 307 307 306 304 303 301 300 299 299 300 301 304 305 307 308 308 309 310 310 311 311 312 312 312 312 312 311 310 309 307 305 302 300 298 296 295 294 292 291 289
288 289 290 291 292 294 296 299 301 302 304 305 304 304 303 300 298 296 295 295 295 297 298 300 302 303 304 304 305 305 306 306 306 307 308 310 310 311 311 310 309 308 308 306 305 303 301 299 297 295 293 291
284 285 286 288 291 294 297 300 301 303 303 303 303 301 300 297 295 293 292 292 293 295 296 297 299 300 301 301 302 302 302 301 301 302 303 304 305 306 307 308 308 308 307 307 306 305 304 303 301 300 297 295
279 282 286 290 294 297 299 300 300 301 301 300 300 299 298 296 294 293 292 291 292 293 294 296 297 298 299 300 300 300 300 299 299 299 299 300 301 303 304 305 306 306 306 306 306 306 305 304 303 302 301 299
279 284 288 293 296 297 298 298 298 299 299 299 299 298 297 295 293 291 290 290 291 291 293 294 295 296 297 298 299 299 299 299 299 299 300 300 300 301 302 303 304 304 304 304 304 304 304 303 303 302 301 300
282 286 290 293 294 295 296 297 298 298 298 299 299 298 296 294 292 291 290 289 289 290 291 292 293 293 295 296 297 298 299 299 299 299 299 299 300 300 301 301 302 302 302 303 302 302 302 301 301 301 300 300
283 286 288 290 291 293 295 296 297 298 299 299 299 298 297 296 294 292 291 290 289 289 289 290 291 292 293 294 295 296 297 297 297 297 298 298 298 299 299 300 300 300 300 301 301 301 301 300 300 299 299 298
283 285 286 288 290 292 293 295 296 297 299 299 300 300 299 298 296 295 293 291 290 289 289 289 290 290 291 292 292 294 294 295 296 296 297 297 297 297 298 298 298 299 299 299 299 300 300 300 299 299 298 297
281 283 285 287 289 290 292 294 296 298 299 299 300 300 300 299 297 296 294 292 291 291 290 290 290 289 289 289 290 291 292 293 295 295 296 297 297 298 298 298 299 299 299 299 299 299 299 299 299 298 297 296
280 282 284 286 288 290 292 294 296 298 299 299 300 300 299 298 297 296 294 293 292 291 290 289 289 288 288 288 288 289 290 292 293 294 295 296 297 297 297 297 297 298 298 298 299 299 299 298 298 297 296 295
278 281 284 286 288 290 292 295 296 297 298 298 298 298 297 297 296 295 295 293 292 291 290 289 288 288 287 288 288 288 289 290 291 291 292 293 293 294 294 294 295 295 295 296 297 298 298 298 297 296 296 295
278 281 284 286 288 291 293 294 296 296 297 297 296 296 296 295 295 294 294 293 292 291 291 290 289 288 288 288 288 288 288 288 288 289 290 290 290 291 291 292 292 293 293 294 295 296 297 297 297 296 295 294
279 282 284 286 288 290 292 294 295 295 295 294 294 294 294 294 293 293 293 292 292 291 291 290 290 289 289 289 289 289 288 288 288 288 288 288 288 288 289 289 290 291 291 292 294 295 296 296 296 295 295 294
278 281 283 285 288 289 291 293 293 293 293 292 292 292 292 292 292 292 292 291 291 291 291 291 291 291 290 290 290 289 289 288 288 287 287 287 288 288 288 288 289 289 290 291 292 293 294 295 295 295 294 293
277 279 282 284 286 289 290 291 291 291 291 291 291 291 291 291 291 291 291 292 292 292 292 292 292 292 291 291 291 290 290 290 289 288 288 287 288 288 288 288 288 289 289 290 290 291 292 294 294 294 294 293
276 279 281 283 285 288 289 289 289 289 289 289 290 290 290 290 291 291 292 293 293 294 294 294 294 294 293 293 292 292 292 291 291 290 289 289 289 289 289 289 289 288 289 289 290 290 291 293 294 294 294 294
275 278 280 283 284 286 286 286 287 287 287 288 289 289 290 290 291 292 294 294 295 296 297 297 296 296 296 296 295 295 294 294 293 292 292 291 290 289 289 289 289 288 288 287 287 289 290 292 292 293 293 293
274 277 280 281 282 284 284 285 285 285 285 286 287 288 289 291 293 294 295 296 297 298 298 298 298 298 298 298 298 298 297 297 297 296 295 294 293 292 290 290 289 288 288 286 285 285 286 288 289 290 290 290
274 277 278 279 281 282 283 283 283 282 283 285 286 288 289 291 293 294 295 296 297 297 298 299 299 300 300 300 300 300 300 299 299 299 298 297 296 295 294 293 291 291 290 289 288 287 286 286 287 288 289 289
274 275 276 278 280 281 281 281 281 281 282 284 286 287 289 291 293 294 294 295 296 296 297 298 299 300 301 302 302 302 302 301 301 301 300 300 298 297 296 295 294 294 294 293 292 292 291 290 290 289 289 289
273 274 275 277 279 280 279 279 279 279 282 284 285 287 288 290 291 292 293 294 294 295 295 297 299 301 303 304 304 304 304 303 303 303 302 302 300 299 298 296 296 295 296 296 295 295 295 294 293 291 291 290
271 272 274 276 278 279 279 278 278 279 282 284 284 285 287 288 290 291 292 292 292 293 294 296 298 301 303 304 305 305 305 305 305 305 305 304 302 301 299 297 297 296 297 297 297 297 297 297 295 294 294 293
271 273 274 276 277 279 279 277 277 279 281 282 282 283 285 287 288 289 290 291 291 292 293 296 298 300 302 303 304 305 306 306 306 306 306 305 304 302 301 299 298 298 298 298 298 298 298 297 296 295 296 295
272 274 275 276 277 278 277 276 277 279 279 279 279 281 283 285 287 288 289 290 291 292 293 295 297 299 301 302 304 305 306 307 307 307 307 306 305 303 302 301 300 299 300 299 299 299 298 297 297 296 295 295
Height
3120 3120 3119 3119 3119 3119 3118 3118 3118 3117 3117 3116 3115 3115 3114 3113 3113 3113 3112 3112 3112 3111 3111 3111 3111 3111 3110 3110 3109 3109 3109 3108 3108 3108 3108 3107 3107 3107 3106 3106 3105 3105 3105 3104 3104 3104 3104 3104 3103 3103 3103 3102
3117 3117 3117 3117 3117 3117 3116 3116 3116 3115 3115 3114 3113 3113 3112 3111 3110 3110 3109 3109 3109 3108 3108 3108 3107 3107 3107 3107 3107 3107 3106 3106 3105 3105 3105 3104 3104 3104 3103 3103 3103 3102 3102 3101 3101 3101 3101 3101 3101 3100 3100 3099
3115 3115 3115 3115 3114 3114 3114 3113 3113 3113 3112 3112 3111 3110 3109 3108 3108 3107 3107 3106 3106 3105 3105 3104 3104 3104 3104 3104 3104 3104 3104 3103 3103 3102 3102 3101 3101 3101 3100 3100 3100 3099 3099 3099 3098 3098 3098 3097 3097 3097 3097 3097
3113 3112 3112 3112 3112 3111 3111 3111 3110 3110 3110 3109 3108 3108 3107 3106 3105 3105 3104 3104 3103 3103 3102 3102 3102 3101 3101 3101 3101 3100 3100 3100 3100 3100 3099 3099 3098 3098 3097 3097 3096 3096 3096 3095 3095 3095 3095 3094 3094 3094 3094 3094
3110 3110 3110 3110 3109 3109 3109 3108 3108 3108 3107 3107 3106 3105 3105 3104 3103 3102 3102 3101 3101 3100 3100 3100 3100 3099 3099 3099 3098 3098 3097 3097 3097 3096 3096 3096 3095 3095 3094 3094 3093 3092 3092 3092 3092 3092 3091 3091 3091 3090 3090 3090
3108 3108 3108 3108 3108 3107 3107 3106 3106 3105 3105 3104 3104 3103 3103 3102 3101 3100 3100 3099 3098 3098 3098 3097 3097 3097 3096 3096 3095 3095 3094 3094 3093 3093 3093 3092 3092 3092 3091 3091 3090 3089 3089 3088 3088 3088 3087 3087 3087 3087 3087 3087
3105 3105 3106 3105 3105 3105 3104 3104 3103 3103 3103 3102 3102 3101 3100 3100 3099 3098 3098 3097 3096 3096 3095 3095 3095 3094 3094 3093 3093 3092 3091 3091 3090 3090 3089 3089 3089 3088 3088 3088 3087 3087 3086 3085 3085 3084 3084 3083 3083 3083 3083 3083
3103 3103 3103 3103 3103 3102 3102 3102 3101 3101 3101 3100 3099 3099 3098 3097 3097 3096 3095 3095 3094 3094 3093 3093 3092 3092 3092 3091 3091 3090 3089 3088 3088 3087 3086 3086 3085 3085 3085 3084 3084 3084 3083 3083 3082 3081 3081 3080 3080 3079 3079 3079
3100 3100 3100 3100 3100 3100 3100 3100 3099 3099 3098 3098 3097 3096 3096 3095 3094 3094 3093 3092 3092 3091 3091 3090 3090 3090 3089 3089 3088 3088 3087 3087 3086 3085 3084 3084 3083 3082 3082 3081 3081 3080 3080 3080 3079 3078 3078 3077 3077 3076 3076 3075
3098 3098 3098 3098 3098 3098 3097 3097 3097 3096 3096 3095 3094 3094 3093 3093 3092 3091 3091 3090 3089 3088 3088 3088 3087 3087 3087 3087 3086 3086 3085 3085 3084 3083 3083 3082 3081 3080 3079 3078 3078 3077 3077 3076 3076 3075 3075 3074 3074 3073 3073 3072
3096 3096 3096 3095 3095 3095 3094 3094 3094 3094 3093 3093 3092 3092 3091 3090 3089 3089 3088 3087 3086 3086 3085 3085 3085 3084 3084 3084 3083 3083 3083 3082 3082 3081 3080 3080 3079 3078 3077 3076 3075 3074 3073 3073 3072 3072 3071 3071 3071 3070 3070 3069
3094 3093 3093 3092 3092 3092 3092 3092 3091 3091 3091 3090 3090 3089 3088 3088 3087 3086 3085 3084 3084 3083 3083 3082 3082 3082 3081 3081 3080 3080 3079 3079 3078 3078 3077 3077 3076 3075 3075 3074 3073 3071 3070 3070 3069 3069 3068 3068 3067 3067 3066 3066
3091 3090 3090 3090 3090 3090 3089 3089 3089 3088 3088 3088 3087 3087 3086 3085 3084 3083 3082 3082 3081 3080 3080 3079 3079 3079 3078 3078 3077 3076 3076 3076 3075 3074 3074 3073 3073 3072 3071 3071 3070 3069 3067 3067 3066 3065 3065 3064 3064 3063 3063 3062
3088 3088 3088 3088 3088 3087 3087 3086 3086 3086 3085 3085 3084 3084 3083 3082 3081 3080 3080 3079 3078 3078 3077 3077 3076 3075 3075 3074 3074 3073 3073 3072 3072 3071 3071 3070 3070 3069 3068 3068 3067 3066 3065 3064 3063 3062 3061 3061 3060 3060 3059 3059
3085 3085 3085 3085 3085 3085 3084 3084 3083 3083 3082 3082 3081 3080 3079 3079 3078 3077 3076 3076 3075 3075 3074 3073 3073 3072 3072 3071 3071 3070 3070 3069 3068 3068 3067 3066 3066 3065 3065 3064 3063 3063 3062 3061 3060 3059 3058 3057 3056 3056 3055 3055
3083 3083 3083 3082 3082 3082 3082 3081 3080 3080 3079 3079 3078 3077 3076 3076 3075 3074 3073 3073 3072 3071 3071 3070 3070 3069 3069 3068 3068 3067 3066 3065 3065 3064 3063 3062 3062 3061 3061 3060 3060 3059 3058 3057 3056 3055 3055 3054 3053 3052 3051 3051
3080 3080 3080 3079 3079 3079 3078 3078 3077 3077 3076 3075 3075 3074 3073 3073 3072 3071 3070 3070 3069 3068 3068 3067 3067 3066 3065 3065 3064 3063 3063 3062 3061 3060 3059 3059 3058 3057 3057 3056 3056 3055 3054 3053 3053 3052 3051 3050 3049 3048 3047 3047
3077 3077 3077 3076 3076 3076 3075 3075 3074 3073 3073 3072 3072 3071 3071 3070 3069 3068 3068 3067 3066 3065 3065 3064 3064 3063 3062 3061 3060 3059 3059 3058 3057 3056 3056 3055 3054 3053 3053 3052 3052 3052 3051 3050 3049 3048 3047 3046 3045 3044 3043 3042
3074 3074 3073 3073 3073 3072 3072 3071 3071 3070 3070 3069 3069 3068 3068 3067 3066 3065 3065 3064 3063 3062 3062 3061 3060 3059 3058 3057 3056 3055 3055 3054 3053 3052 3051 3051 3051 3050 3049 3048 3048 3047 3047 3046 3045 3044 3043 3042 3041 3040 3039 3038
3071 3070 3070 3070 3069 3069 3069 3068 3068 3068 3067 3067 3066 3065 3065 3064 3063 3062 3062 3061 3060 3059 3058 3058 3057 3056 3055 3054 3053 3052 3051 3050 3049 3048 3047 3046 3046 3045 3044 3044 3043 3043 3042 3041 3041 3040 3039 3038 3037 3036 3035 3034
3068 3067 3067 3067 3066 3066 3066 3065 3065 3065 3064 3063 3063 3062 3062 3061 3060 3059 3059 3058 3057 3056 3055 3054 3053 3052 3051 3050 3049 3048 3047 3046 3045 3044 3043 3042 3041 3040 3040 3039 3038 3038 3037 3037 3036 3035 3034 3033 3032 3031 3030 3029
3065 3064 3064 3064 3063 3063 3063 3062 3062 3061 3061 3060 3059 3059 3058 3058 3057 3056 3055 3054 3054 3053 3052 3051 3049 3048 3047 3046 3045 3044 3043 3042 3041 3040 3039 3038 3037 3035 3034 3033 3033 3032 3032 3031 3031 3031 3030 3028 3027 3026 3025 3024
3062 3061 3061 3060 3060 3060 3060 3059 3059 3058 3057 3056 3056 3056 3055 3054 3053 3052 3052 3051 3050 3049 3048 3047 3046 3045 3044 3043 3042 3040 3039 3038 3037 3036 3035 3034 3032 3031 3030 3028 3028 3027 3026 3026 3025 3025 3024 3023 3022 3021 3020 3019
3059 3058 3058 3057 3057 3057 3056 3056 3055 3054 3053 3053 3052 3052 3051 3050 3049 3048 3047 3046 3045 3044 3043 3042 3042 3041 3040 3039 3038 3037 3036 3034 3033 3032 3030 3029 3028 3027 3026 3024 3023 3022 3021 3020 3020 3019 3019 3018 3017 3016 3015 3014
3055 3055 3054 3054 3053 3053 3053 3052 3051 3051 3050 3049 3048 3048 3047 3046 3045 3044 3042 3041 3040 3040 3039 3038 3037 3036 3035 3034 3034 3032 3031 3030 3028 3027 3026 3025 3023 3022 3021 3019 3018 3017 3016 3015 3014 3014 3014 3013 3012 3011 3010 3010
3052 3052 3051 3050 3050 3049 3049 3048 3048 3047 3046 3046 3045 3043 3042 3041 3040 3039 3038 3037 3036 3035 3034 3033 3033 3032 3031 3030 3029 3028 3026 3025 3024 3022 3021 3020 3019 3017 3016 3014 3013 3011 3010 3008 3007 3006 3006 3006 3005 3005 3004 3004
3048 3048 3047 3046 3046 3046 3045 3044 3044 3043 3043 3042 3040 3039 3038 3037 3036 3035 3034 3033 3032 3031 3030 3029 3028 3027 3026 3025 3024 3023 3021 3020 3019 3017 3016 3015 3014 3013 3011 3010 3008 3006 3004 3003 3002 3000 2999 2998 2996 2996 2996 2996
3045 3044 3043 3042 3042 3042 3041 3041 3040 3039 3039 3038 3036 3035 3034 3033 3032 3031 3030 3029 3028 3027 3026 3025 3024 3022 3021 3020 3019 3018 3016 3015 3014 3012 3011 3009 3008 3007 3006 3004 3003 3002 2999 2998 2996 2994 2992 2991 2989 2988 2986 2986
3041 3040 3039 3039 3038 3038 3037 3037 3036 3035 3035 3034 3032 3030 3030 3029 3028 3027 3026 3025 3023 3022 3021 3020 3019 3018 3016 3015 3014 3013 3011 3010 3008 3007 3005 3004 3003 3001 3000 2999 2997 2996 2994 2992 2991 2989 2987 2985 2983 2981 2979 2977
3036 3035 3035 3035 3034 3034 3033 3033 3032 3032 3032 3030 3027 3026 3026 3025 3024 3023 3021 3020 3019 3017 3016 3015 3014 3013 3011 3010 3008 3007 3006 3005 3003 3002 3000 2999 2997 2995 2994 2993 2991 2990 2988 2987 2986 2984 2983 2981 2978 2976 2974 2970
3032 3031 3031 3031 3030 3029 3028 3028 3028 3028 3028 3026 3024 3022 3022 3021 3020 3018 3017 3015 3013 3012 3011 3009 3008 3007 3006 3005 3003 3002 3001 2999 2998 2996 2995 2994 2992 2990 2988 2987 2986 2984 2982 2980 2979 2978 2977 2976 2974 2972 2970 2966